Date String (YYYY-MM-DD hh:mm:ss) UTC,Instrument flags,Ambient pressure (hPa),Sample flow (lpm),Bypass flow (lpm),Sample temperature (°C),Ambient temperature (°C),ASC tube jacket temperature (°C),LED temperature (°C),Box temperature (°C),Sample RH (%),Span deviation,Mass concentration (μg/m³),Mass concentration (μg/m³),Mass concentration (μg/m³)
DateTimeUTC,F1_M11,P_M11,Q1_M11,Q2_M11,T1_M11,T2_M11,T3_M11,T4_M11,T5_M11,U1_M11,ZSPAN_M11,X0_M11,X2_M11,X1_M11
2023-01-16 21:00:00,,0812.0,5.01,0.00,23.3,22.2,00.0,32.0,25.1,15.6,0000.1,0014.05,0010.55,0010.16
2023-01-16 21:01:00,,0812.0,5.03,0.00,23.3,22.3,00.0,32.0,25.1,15.8,0000.1,0014.08,0010.46,0010.02
2023-01-16 21:02:00,,0812.1,5.00,0.00,23.3,22.3,00.0,32.0,25.1,16.1,0000.1,0014.95,0010.40,0009.95
2023-01-16 21:03:00,,0812.1,5.00,0.00,23.4,22.3,00.0,32.0,25.2,16.0,-000.2,0014.99,0010.28,0009.81
2023-01-16 21:04:00,,0812.0,5.00,0.00,23.4,22.3,00.0,32.1,25.2,15.4,-001.0,0014.78,0010.08,0009.61
2023-01-16 21:05:00,,0812.1,5.00,0.00,23.4,22.3,00.0,32.1,25.2,15.2,-001.8,0014.56,0009.87,0009.39
2023-01-16 21:06:00,,0812.2,4.99,0.00,23.4,22.3,00.0,32.1,25.2,14.8,-001.7,0014.31,0009.62,0009.13
2023-01-16 21:07:00,,0812.2,5.01,0.00,23.4,22.4,00.0,32.1,25.2,13.6,-002.0,0014.01,0009.32,0008.83
2023-01-16 21:08:00,,0812.2,5.01,0.00,23.5,22.4,00.0,32.1,25.2,14.0,-001.6,0013.71,0009.07,0008.60
2023-01-16 21:09:00,,0812.1,5.01,0.00,23.5,22.4,00.0,32.2,25.2,13.8,-001.8,0013.35,0008.82,0008.38
2023-01-16 21:10:00,,0812.1,4.97,0.00,23.5,22.4,00.0,32.2,25.3,15.4,-002.2,0013.28,0008.74,0008.30
2023-01-16 21:11:00,,0812.1,5.00,0.00,23.5,22.4,00.0,32.2,25.4,16.6,-002.6,0013.98,0008.96,0008.48
2023-01-16 21:12:00,,0812.1,5.01,0.00,23.5,22.4,00.0,32.2,25.4,16.6,-002.8,0014.06,0009.08,0008.64
2023-01-16 21:13:00,,0812.0,5.00,0.00,23.5,22.3,00.0,32.2,25.4,16.1,-002.9,0013.99,0009.12,0008.71
2023-01-16 21:14:00,,0812.0,5.00,0.00,23.5,22.3,00.0,32.3,25.4,15.8,-002.8,0014.35,0009.15,0008.72
2023-01-16 21:15:00,,0812.1,4.99,0.00,23.5,22.3,00.0,32.3,25.4,15.9,-002.3,0014.47,0009.26,0008.81
2023-01-16 21:16:00,,0812.1,5.01,0.00,23.5,22.3,00.0,32.3,25.4,16.3,-002.5,0014.61,0009.41,0008.95
2023-01-16 21:17:00,,0812.1,4.99,0.00,23.5,22.2,00.0,32.3,25.4,16.8,-002.3,0014.93,0009.72,0009.27
2023-01-16 21:18:00,,0812.1,5.01,0.00,23.5,22.2,00.0,32.3,25.4,16.9,-002.1,0015.46,0010.19,0009.73
2023-01-16 21:19:00,,0812.0,5.00,0.00,23.5,22.2,00.0,32.3,25.4,16.8,-002.0,0016.02,0010.64,0010.17
2023-01-16 21:20:00,,0812.1,5.02,0.00,23.5,22.2,00.0,32.3,25.4,16.7,-002.0,0016.79,0011.10,0010.59
2023-01-16 21:21:00,,0812.1,5.03,0.00,23.5,22.3,00.0,32.3,25.4,16.6,-001.7,0017.25,0011.38,0010.87
2023-01-16 21:22:00,,0812.0,5.02,0.00,23.5,22.3,00.0,32.3,25.4,16.7,-001.7,0017.01,0011.40,0010.90
2023-01-16 21:23:00,,0812.1,4.98,0.00,23.5,22.4,00.0,32.3,25.4,16.7,-001.6,0017.70,0011.51,0010.98
2023-01-16 21:24:00,,0812.0,4.97,0.00,23.5,22.4,00.0,32.3,25.4,16.6,-001.8,0017.59,0011.68,0011.12
2023-01-16 21:25:00,,0812.0,4.97,0.00,23.6,22.4,00.0,32.3,25.4,16.5,-002.2,0017.19,0011.87,0011.29
2023-01-16 21:26:00,,0812.0,5.00,0.00,23.6,22.4,00.0,32.3,25.4,16.3,-002.3,0017.47,0012.07,0011.48
2023-01-16 21:27:00,,0812.1,5.02,0.00,23.6,22.5,00.0,32.3,25.4,16.1,-002.2,0017.80,0012.22,0011.62
2023-01-16 21:28:00,,0812.1,5.03,0.00,23.6,22.5,00.0,32.4,25.5,16.2,-002.6,0017.95,0012.29,0011.66
2023-01-16 21:29:00,,0812.1,5.02,0.00,23.6,22.5,00.0,32.4,25.5,16.2,-002.6,0017.94,0012.26,0011.64
2023-01-16 21:30:00,,0812.0,5.04,0.00,23.6,22.5,00.0,32.4,25.5,16.1,-002.9,0017.97,0012.29,0011.66
2023-01-16 21:31:00,,0812.0,5.00,0.00,23.6,22.4,00.0,32.4,25.5,16.1,-002.5,0017.84,0012.37,0011.75
2023-01-16 21:32:00,,0812.1,5.02,0.00,23.6,22.4,00.0,32.4,25.5,16.2,-002.3,0017.87,0012.53,0011.89
2023-01-16 21:33:00,,0812.1,4.99,0.00,23.7,22.4,00.0,32.4,25.5,16.2,-002.0,0018.10,0012.67,0012.02
2023-01-16 21:34:00,,0812.1,4.97,0.00,23.7,22.5,00.0,32.4,25.5,16.2,-002.0,0018.49,0012.78,0012.11
2023-01-16 21:35:00,,0812.1,5.01,0.00,23.7,22.5,00.0,32.4,25.5,16.1,-001.7,0018.27,0012.92,0012.22
2023-01-16 21:36:00,,0812.1,4.99,0.00,23.7,22.4,00.0,32.4,25.5,16.2,-000.9,0018.50,0013.08,0012.36
2023-01-16 21:37:00,,0812.0,5.01,0.00,23.7,22.4,00.0,32.5,25.5,16.2,-000.9,0018.68,0013.20,0012.47
2023-01-16 21:38:00,,0812.1,5.00,0.00,23.6,22.3,00.0,32.5,25.5,16.2,-000.8,0018.79,0013.36,0012.59
2023-01-16 21:39:00,,0812.1,4.99,0.00,23.6,22.2,00.0,32.5,25.5,16.2,-000.6,0018.79,0013.42,0012.68
2023-01-16 21:40:00,,0812.1,5.00,0.00,23.6,22.2,00.0,32.5,25.5,16.3,-000.3,0018.92,0013.53,0012.78
2023-01-16 21:41:00,,0812.1,4.99,0.00,23.6,22.2,00.0,32.5,25.4,16.2,0000.1,0019.26,0013.61,0012.85
2023-01-16 21:42:00,,0812.0,5.01,0.00,23.6,22.2,00.0,32.5,25.4,16.2,-000.4,0019.64,0013.64,0012.87
2023-01-16 21:43:00,,0812.0,5.01,0.00,23.6,22.2,00.0,32.5,25.4,16.2,-000.8,0019.64,0013.62,0012.85
2023-01-16 21:44:00,,0812.0,5.01,0.00,23.6,22.3,00.0,32.5,25.4,16.1,-001.0,0019.49,0013.64,0012.83
2023-01-16 21:45:00,,0812.0,4.99,0.00,23.6,22.2,00.0,32.5,25.4,16.0,-000.6,0018.78,0013.62,0012.81
2023-01-16 21:46:00,,0812.0,4.99,0.00,23.6,22.2,00.0,32.4,25.4,16.1,-000.4,0018.83,0013.59,0012.78
2023-01-16 21:47:00,,0812.0,5.00,0.00,23.6,22.2,00.0,32.4,25.4,16.1,-001.1,0019.14,0013.56,0012.74
2023-01-16 21:48:00,,0812.0,5.01,0.00,23.6,22.2,00.0,32.4,25.4,16.0,-001.1,0019.07,0013.48,0012.71
2023-01-16 21:49:00,,0811.9,5.00,0.00,23.6,22.2,00.0,32.4,25.4,15.9,-001.6,0019.09,0013.44,0012.67
2023-01-16 21:50:00,,0811.8,5.00,0.00,23.6,22.1,00.0,32.4,25.4,15.9,-002.0,0019.78,0013.41,0012.64
2023-01-16 21:51:00,,0811.8,4.98,0.00,23.6,22.1,00.0,32.4,25.4,15.8,-002.2,0019.91,0013.41,0012.61
2023-01-16 21:52:00,,0811.9,5.00,0.00,23.6,22.1,00.0,32.4,25.3,15.8,-002.3,0020.03,0013.39,0012.59
2023-01-16 21:53:00,,0811.9,5.00,0.00,23.6,22.1,00.0,32.4,25.3,15.8,-002.2,0019.89,0013.37,0012.56
2023-01-16 21:54:00,,0811.9,5.00,0.00,23.5,22.1,00.0,32.4,25.3,15.8,-002.5,0019.89,0013.33,0012.52
2023-01-16 21:55:00,,0811.9,5.00,0.00,23.5,22.1,00.0,32.4,25.3,15.8,-002.6,0019.88,0013.29,0012.48
2023-01-16 21:56:00,,0811.8,5.00,0.00,23.5,22.1,00.0,32.4,25.3,15.8,-002.7,0019.77,0013.25,0012.44
2023-01-16 21:57:00,,0811.8,5.00,0.00,23.5,22.0,00.0,32.4,25.3,15.9,-002.9,0019.75,0013.22,0012.39
2023-01-16 21:58:00,,0811.9,5.01,0.00,23.5,22.0,00.0,32.4,25.3,16.1,-002.8,0019.41,0013.16,0012.31
2023-01-16 21:59:00,,0811.9,4.99,0.00,23.5,22.0,00.0,32.4,25.2,15.7,-002.8,0019.17,0013.04,0012.21
